Time,TemperatureF,DewpointF,PressureIn,WindDirection,WindDirectionDegrees,WindSpeedMPH,WindSpeedGustMPH,Humidity,HourlyPrecipIn,Conditions,Clouds,dailyrainin,SoftwareType,DateUTC
2013-12-30 00:01:00,26.1,25.9,29.08,NW,315,1.6,2.2,99,0.00,,,0.00,meteobridge,2013-12-30 05:01:00,
2013-12-30 00:02:00,26.1,25.9,29.08,West,270,4.5,4.5,99,0.00,,,0.00,meteobridge,2013-12-30 05:02:00,
2013-12-30 00:04:00,26.1,25.9,29.08,NW,315,5.4,7.6,99,0.00,,,0.00,meteobridge,2013-12-30 05:04:00,
2013-12-30 00:09:00,26.1,25.9,29.08,West,270,9.8,9.8,99,0.00,,,0.00,meteobridge,2013-12-30 05:09:00,
2013-12-30 00:14:00,25.7,25.5,29.08,NE,45,3.1,6.0,99,0.00,,,0.00,meteobridge,2013-12-30 05:14:00,
2013-12-30 00:19:00,25.7,25.5,29.08,NW,315,6.9,6.9,99,0.00,,,0.00,meteobridge,2013-12-30 05:19:00,
2013-12-30 00:24:00,25.7,25.5,29.08,NE,45,3.1,4.5,99,0.00,,,0.00,meteobridge,2013-12-30 05:24:00,
2013-12-30 00:30:00,25.7,25.5,29.08,East,90,3.8,3.8,99,0.00,,,0.00,meteobridge,2013-12-30 05:30:00,
2013-12-30 00:35:00,25.5,25.3,29.08,NE,45,1.6,6.9,99,0.00,,,0.00,meteobridge,2013-12-30 05:35:00,
2013-12-30 00:40:00,25.5,25.3,29.08,NE,45,3.1,4.5,99,0.00,,,0.00,meteobridge,2013-12-30 05:40:00,
2013-12-30 00:45:00,25.5,25.3,29.08,NE,45,5.4,5.4,99,0.00,,,0.00,meteobridge,2013-12-30 05:45:00,
2013-12-30 00:50:00,25.5,25.3,29.08,NW,315,3.8,9.8,99,0.00,,,0.00,meteobridge,2013-12-30 05:50:00,
2013-12-30 00:55:00,25.3,25.2,29.08,NW,315,6.9,9.2,99,0.00,,,0.00,meteobridge,2013-12-30 05:55:00,
2013-12-30 01:01:00,25.5,25.3,29.09,East,90,3.1,3.1,99,0.00,,,0.00,meteobridge,2013-12-30 06:01:00,
2013-12-30 01:06:00,25.3,25.2,29.09,East,90,10.7,10.7,99,0.00,,,0.00,meteobridge,2013-12-30 06:06:00,
2013-12-30 01:11:00,25.2,25.0,29.09,West,270,5.4,6.9,99,0.00,,,0.00,meteobridge,2013-12-30 06:11:00,
2013-12-30 01:16:00,25.0,24.8,29.09,West,270,5.4,13.0,99,0.00,,,0.00,meteobridge,2013-12-30 06:16:00,
2013-12-30 01:21:00,24.8,24.6,29.09,SW,225,9.2,10.7,99,0.00,,,0.00,meteobridge,2013-12-30 06:21:00,
2013-12-30 01:26:00,24.8,24.6,29.09,WNW,293,6.0,6.0,99,0.00,,,0.00,meteobridge,2013-12-30 06:26:00,
2013-12-30 01:32:00,24.6,24.4,29.10,West,270,9.8,9.8,99,0.00,,,0.00,meteobridge,2013-12-30 06:32:00,
2013-12-30 01:37:00,24.6,24.4,29.10,NNW,338,4.5,6.0,99,0.00,,,0.00,meteobridge,2013-12-30 06:37:00,
2013-12-30 01:42:00,24.4,24.3,29.10,North,0,2.2,6.0,99,0.00,,,0.00,meteobridge,2013-12-30 06:42:00,
2013-12-30 01:47:00,24.3,24.1,29.09,NW,315,5.4,9.2,99,0.00,,,0.00,meteobridge,2013-12-30 06:47:00,
2013-12-30 01:52:00,23.9,23.7,29.10,NW,315,6.9,6.9,99,0.00,,,0.00,meteobridge,2013-12-30 06:52:00,
2013-12-30 01:57:00,24.1,23.9,29.10,NW,315,3.1,6.9,99,0.00,,,0.00,meteobridge,2013-12-30 06:57:00,
2013-12-30 02:03:00,23.9,23.7,29.10,West,270,8.3,8.3,99,0.00,,,0.00,meteobridge,2013-12-30 07:03:00,
2013-12-30 02:08:00,23.9,23.7,29.10,East,90,3.1,4.5,99,0.00,,,0.00,meteobridge,2013-12-30 07:08:00,
2013-12-30 02:13:00,23.9,23.7,29.10,NW,315,1.6,7.6,99,0.00,,,0.00,meteobridge,2013-12-30 07:13:00,
2013-12-30 02:18:00,23.7,23.5,29.10,SW,225,2.2,3.1,99,0.00,,,0.00,meteobridge,2013-12-30 07:18:00,
2013-12-30 02:23:00,23.7,23.5,29.11,East,90,3.1,3.1,99,0.00,,,0.00,meteobridge,2013-12-30 07:23:00,
2013-12-30 02:28:00,23.7,23.5,29.11,WNW,293,2.2,2.2,99,0.00,,,0.00,meteobridge,2013-12-30 07:28:00,
2013-12-30 02:34:00,23.5,23.4,29.11,NW,315,4.5,5.4,99,0.00,,,0.00,meteobridge,2013-12-30 07:34:00,
2013-12-30 02:39:00,23.5,23.4,29.11,NE,45,4.5,6.0,99,0.00,,,0.00,meteobridge,2013-12-30 07:39:00,
2013-12-30 02:44:00,23.4,23.2,29.11,North,0,1.6,8.3,99,0.00,,,0.00,meteobridge,2013-12-30 07:44:00,
2013-12-30 02:49:00,23.4,23.2,29.11,NW,315,3.1,3.1,99,0.00,,,0.00,meteobridge,2013-12-30 07:49:00,
2013-12-30 02:54:00,23.4,23.2,29.12,NW,315,3.1,5.4,99,0.00,,,0.00,meteobridge,2013-12-30 07:54:00,
2013-12-30 02:59:00,23.4,23.2,29.12,NW,315,6.0,8.3,99,0.00,,,0.00,meteobridge,2013-12-30 07:59:00,
2013-12-30 03:05:00,23.2,23.0,29.12,NE,45,0.7,2.2,99,0.00,,,0.00,meteobridge,2013-12-30 08:05:00,
2013-12-30 03:10:00,23.2,23.0,29.13,WSW,248,3.1,4.5,99,0.00,,,0.00,meteobridge,2013-12-30 08:10:00,
2013-12-30 03:15:00,23.2,23.0,29.13,NW,315,4.5,4.5,99,0.00,,,0.00,meteobridge,2013-12-30 08:15:00,
2013-12-30 03:20:00,23.0,22.8,29.13,NW,315,1.6,3.8,99,0.00,,,0.00,meteobridge,2013-12-30 08:20:00,
2013-12-30 03:25:00,22.8,22.6,29.13,North,0,3.1,6.0,99,0.00,,,0.00,meteobridge,2013-12-30 08:25:00,
2013-12-30 03:30:00,22.6,22.5,29.13,NW,315,3.1,6.9,99,0.00,,,0.00,meteobridge,2013-12-30 08:30:00,
2013-12-30 03:36:00,22.5,22.3,29.13,NE,45,1.6,3.1,99,0.00,,,0.00,meteobridge,2013-12-30 08:36:00,
2013-12-30 03:41:00,22.3,22.1,29.13,SW,225,12.1,12.1,99,0.00,,,0.00,meteobridge,2013-12-30 08:41:00,
2013-12-30 03:46:00,22.3,22.1,29.14,North,0,3.1,4.5,99,0.00,,,0.00,meteobridge,2013-12-30 08:46:00,
2013-12-30 03:51:00,22.1,21.9,29.14,West,270,8.3,8.3,99,0.00,,,0.00,meteobridge,2013-12-30 08:51:00,
2013-12-30 03:56:00,22.1,21.9,29.13,NW,315,1.6,2.2,99,0.00,,,0.00,meteobridge,2013-12-30 08:56:00,
2013-12-30 04:01:00,22.1,21.9,29.14,NE,45,2.2,4.5,99,0.00,,,0.00,meteobridge,2013-12-30 09:01:00,
2013-12-30 04:07:00,21.9,21.7,29.14,SW,225,10.7,10.7,99,0.00,,,0.00,meteobridge,2013-12-30 09:07:00,
2013-12-30 04:12:00,21.7,21.6,29.14,NW,315,3.1,3.1,99,0.00,,,0.00,meteobridge,2013-12-30 09:12:00,
2013-12-30 04:17:00,21.7,21.6,29.15,West,270,6.9,6.9,99,0.00,,,0.00,meteobridge,2013-12-30 09:17:00,
2013-12-30 04:22:00,21.6,21.4,29.15,SW,225,4.5,6.0,99,0.00,,,0.00,meteobridge,2013-12-30 09:22:00,
2013-12-30 04:27:00,21.4,21.2,29.15,NE,45,0.7,3.8,99,0.00,,,0.00,meteobridge,2013-12-30 09:27:00,
2013-12-30 04:32:00,21.4,21.2,29.15,SSW,203,8.3,8.3,99,0.00,,,0.00,meteobridge,2013-12-30 09:32:00,
2013-12-30 04:38:00,21.2,21.0,29.15,North,0,2.2,3.8,99,0.00,,,0.00,meteobridge,2013-12-30 09:38:00,
2013-12-30 04:43:00,21.2,21.0,29.15,West,270,3.1,5.4,99,0.00,,,0.00,meteobridge,2013-12-30 09:43:00,
2013-12-30 04:48:00,21.0,20.8,29.15,West,270,6.0,6.0,99,0.00,,,0.00,meteobridge,2013-12-30 09:48:00,
2013-12-30 04:53:00,20.8,20.7,29.15,NW,315,3.1,3.1,99,0.00,,,0.00,meteobridge,2013-12-30 09:53:00,
2013-12-30 04:58:00,20.7,20.5,29.16,NW,315,6.0,6.0,99,0.00,,,0.00,meteobridge,2013-12-30 09:58:00,
2013-12-30 05:04:00,20.5,20.3,29.16,West,270,5.4,5.4,99,0.00,,,0.00,meteobridge,2013-12-30 10:04:00,
2013-12-30 05:09:00,20.3,20.1,29.16,NE,45,2.2,6.9,99,0.00,,,0.00,meteobridge,2013-12-30 10:09:00,
2013-12-30 05:14:00,20.1,19.9,29.16,East,90,2.2,3.8,99,0.00,,,0.00,meteobridge,2013-12-30 10:14:00,
2013-12-30 05:19:00,20.1,19.9,29.16,North,0,1.6,3.1,99,0.00,,,0.00,meteobridge,2013-12-30 10:19:00,
2013-12-30 05:24:00,19.9,19.8,29.16,NE,45,2.2,6.0,99,0.00,,,0.00,meteobridge,2013-12-30 10:24:00,
2013-12-30 05:29:00,19.9,19.8,29.16,East,90,4.5,4.5,99,0.00,,,0.00,meteobridge,2013-12-30 10:29:00,
2013-12-30 05:35:00,19.8,19.6,29.17,North,0,1.6,3.8,99,0.00,,,0.00,meteobridge,2013-12-30 10:35:00,
2013-12-30 05:40:00,19.8,19.6,29.17,East,90,3.1,6.9,99,0.00,,,0.00,meteobridge,2013-12-30 10:40:00,
2013-12-30 05:45:00,19.6,19.4,29.17,West,270,4.5,4.5,99,0.00,,,0.00,meteobridge,2013-12-30 10:45:00,
2013-12-30 05:50:00,19.4,19.2,29.17,North,0,3.8,5.4,99,0.00,,,0.00,meteobridge,2013-12-30 10:50:00,
2013-12-30 05:55:00,19.4,19.2,29.17,NNE,23,1.6,3.1,99,0.00,,,0.00,meteobridge,2013-12-30 10:55:00,
2013-12-30 06:00:00,19.4,19.2,29.17,NE,45,2.2,3.8,99,0.00,,,0.00,meteobridge,2013-12-30 11:00:00,
2013-12-30 06:06:00,19.2,19.0,29.18,North,0,1.6,3.1,99,0.00,,,0.00,meteobridge,2013-12-30 11:06:00,
2013-12-30 06:11:00,19.0,18.9,29.18,North,0,3.1,4.5,99,0.00,,,0.00,meteobridge,2013-12-30 11:11:00,
2013-12-30 06:16:00,19.0,18.9,29.18,NW,315,2.2,3.8,99,0.00,,,0.00,meteobridge,2013-12-30 11:16:00,
2013-12-30 06:21:00,18.9,18.7,29.18,NE,45,2.2,3.1,99,0.00,,,0.00,meteobridge,2013-12-30 11:21:00,
2013-12-30 06:26:00,18.9,18.7,29.18,NE,45,0.7,5.4,99,0.00,,,0.00,meteobridge,2013-12-30 11:26:00,
2013-12-30 06:31:00,18.7,18.5,29.18,East,90,2.2,3.1,99,0.00,,,0.00,meteobridge,2013-12-30 11:31:00,
2013-12-30 06:37:00,18.7,18.5,29.19,NE,45,0.7,0.7,99,0.00,,,0.00,meteobridge,2013-12-30 11:37:00,
2013-12-30 06:42:00,18.5,18.3,29.19,SW,225,4.5,5.4,99,0.00,,,0.00,meteobridge,2013-12-30 11:42:00,
2013-12-30 06:47:00,18.5,18.3,29.19,NNW,338,3.1,4.5,99,0.00,,,0.00,meteobridge,2013-12-30 11:47:00,
2013-12-30 06:52:00,18.1,18.0,29.19,NE,45,2.2,2.2,99,0.00,,,0.00,meteobridge,2013-12-30 11:52:00,
2013-12-30 06:57:00,18.1,18.0,29.19,West,270,2.2,2.2,99,0.00,,,0.00,meteobridge,2013-12-30 11:57:00,
2013-12-30 07:02:00,18.1,18.0,29.19,West,270,3.8,3.8,99,0.00,,,0.00,meteobridge,2013-12-30 12:02:00,
2013-12-30 07:08:00,18.0,17.8,29.20,NW,315,1.6,2.2,99,0.00,,,0.00,meteobridge,2013-12-30 12:08:00,
2013-12-30 07:13:00,18.0,17.8,29.20,NW,315,1.6,3.8,99,0.00,,,0.00,meteobridge,2013-12-30 12:13:00,
2013-12-30 07:18:00,18.0,17.8,29.20,NW,315,2.2,3.8,99,0.00,,,0.00,meteobridge,2013-12-30 12:18:00,
2013-12-30 07:23:00,18.0,17.8,29.20,NE,45,2.2,3.8,99,0.00,,,0.00,meteobridge,2013-12-30 12:23:00,
2013-12-30 07:28:00,18.0,17.8,29.20,North,0,2.2,2.2,99,0.00,,,0.00,meteobridge,2013-12-30 12:28:00,
2013-12-30 07:33:00,17.8,17.6,29.21,NW,315,4.5,4.5,99,0.00,,,0.00,meteobridge,2013-12-30 12:33:00,
2013-12-30 07:39:00,17.6,17.4,29.20,NW,315,3.8,3.8,99,0.00,,,0.00,meteobridge,2013-12-30 12:39:00,
2013-12-30 07:44:00,17.6,17.4,29.21,East,90,2.2,3.8,99,0.00,,,0.00,meteobridge,2013-12-30 12:44:00,
2013-12-30 07:49:00,17.4,17.2,29.21,North,0,1.6,2.2,99,0.00,,,0.00,meteobridge,2013-12-30 12:49:00,
2013-12-30 07:54:00,17.4,17.2,29.21,NE,45,2.2,5.4,99,0.00,,,0.00,meteobridge,2013-12-30 12:54:00,
2013-12-30 07:59:00,17.2,17.1,29.20,West,270,3.1,5.4,99,0.00,,,0.00,meteobridge,2013-12-30 12:59:00,
2013-12-30 08:04:00,17.2,17.1,29.20,NW,315,3.1,3.1,99,0.00,,,0.00,meteobridge,2013-12-30 13:04:00,
2013-12-30 08:10:00,17.1,16.9,29.20,WNW,293,4.5,4.5,99,0.00,,,0.00,meteobridge,2013-12-30 13:10:00,
2013-12-30 08:15:00,17.1,16.9,29.20,North,0,0.7,1.6,99,0.00,,,0.00,meteobridge,2013-12-30 13:15:00,
2013-12-30 08:20:00,17.1,16.9,29.21,North,0,2.2,3.8,99,0.00,,,0.00,meteobridge,2013-12-30 13:20:00,
2013-12-30 08:25:00,16.9,16.7,29.21,SW,225,1.6,3.1,99,0.00,,,0.00,meteobridge,2013-12-30 13:25:00,
2013-12-30 08:30:00,16.9,16.7,29.21,North,0,2.2,2.2,99,0.00,,,0.00,meteobridge,2013-12-30 13:30:00,
2013-12-30 08:35:00,16.9,16.7,29.21,NW,315,3.1,3.1,99,0.00,,,0.00,meteobridge,2013-12-30 13:35:00,
2013-12-30 08:41:00,16.7,16.5,29.21,North,0,2.2,5.4,99,0.00,,,0.00,meteobridge,2013-12-30 13:41:00,
2013-12-30 08:46:00,16.9,16.7,29.21,NW,315,3.8,3.8,99,0.00,,,0.00,meteobridge,2013-12-30 13:46:00,
2013-12-30 08:51:00,16.9,16.7,29.21,NW,315,6.0,6.0,99,0.00,,,0.00,meteobridge,2013-12-30 13:51:00,
2013-12-30 08:56:00,16.9,16.7,29.21,NE,45,2.2,3.8,99,0.00,,,0.00,meteobridge,2013-12-30 13:56:00,
2013-12-30 09:01:00,17.1,16.9,29.21,NW,315,1.6,2.2,99,0.00,,,0.00,meteobridge,2013-12-30 14:01:00,
2013-12-30 09:06:00,17.1,16.9,29.21,North,0,0.7,1.6,99,0.00,,,0.00,meteobridge,2013-12-30 14:06:00,
2013-12-30 09:12:00,17.2,17.1,29.21,SW,225,2.2,2.2,99,0.00,,,0.00,meteobridge,2013-12-30 14:12:00,
2013-12-30 09:17:00,17.1,16.9,29.21,NW,315,5.4,5.4,99,0.00,,,0.00,meteobridge,2013-12-30 14:17:00,
2013-12-30 09:22:00,17.1,16.9,29.22,West,270,3.1,5.4,99,0.00,,,0.00,meteobridge,2013-12-30 14:22:00,
2013-12-30 09:27:00,17.2,17.1,29.22,West,270,3.1,3.1,99,0.00,,,0.00,meteobridge,2013-12-30 14:27:00,
2013-12-30 09:32:00,17.4,17.2,29.22,NE,45,0.7,1.6,99,0.00,,,0.00,meteobridge,2013-12-30 14:32:00,
2013-12-30 09:37:00,17.8,17.6,29.23,SE,135,2.2,2.2,99,0.00,,,0.00,meteobridge,2013-12-30 14:37:00,
2013-12-30 09:43:00,17.6,17.4,29.23,ENE,68,2.2,7.6,99,0.00,,,0.00,meteobridge,2013-12-30 14:43:00,
2013-12-30 09:48:00,17.8,17.6,29.23,ENE,68,3.8,4.5,99,0.00,,,0.00,meteobridge,2013-12-30 14:48:00,
2013-12-30 09:53:00,18.0,17.8,29.23,East,90,1.6,3.8,99,0.00,,,0.00,meteobridge,2013-12-30 14:53:00,
2013-12-30 09:58:00,18.1,18.0,29.23,NW,315,3.8,6.0,99,0.00,,,0.00,meteobridge,2013-12-30 14:58:00,
2013-12-30 10:03:00,18.5,18.3,29.23,NE,45,1.6,4.5,99,0.00,,,0.00,meteobridge,2013-12-30 15:03:00,
2013-12-30 10:08:00,19.0,18.9,29.23,NE,45,0.0,2.2,99,0.00,,,0.00,meteobridge,2013-12-30 15:08:00,
2013-12-30 10:14:00,19.6,19.4,29.23,North,0,1.6,2.2,99,0.00,,,0.00,meteobridge,2013-12-30 15:14:00,
2013-12-30 10:19:00,19.0,18.9,29.24,West,270,3.1,3.8,99,0.00,,,0.00,meteobridge,2013-12-30 15:19:00,
2013-12-30 10:24:00,19.0,18.9,29.24,NE,45,0.0,3.1,99,0.00,,,0.00,meteobridge,2013-12-30 15:24:00,
2013-12-30 10:29:00,19.2,19.0,29.24,NNE,23,3.1,4.5,99,0.00,,,0.00,meteobridge,2013-12-30 15:29:00,
2013-12-30 10:34:00,19.2,19.0,29.24,NE,45,3.8,3.8,99,0.00,,,0.00,meteobridge,2013-12-30 15:34:00,
2013-12-30 10:40:00,18.5,18.0,29.24,West,270,4.5,6.0,98,0.00,,,0.00,meteobridge,2013-12-30 15:40:00,
2013-12-30 10:45:00,18.9,18.7,29.25,NW,315,1.6,1.6,99,0.00,,,0.00,meteobridge,2013-12-30 15:45:00,
2013-12-30 10:50:00,21.2,20.7,29.25,North,0,2.2,2.2,98,0.00,,,0.00,meteobridge,2013-12-30 15:50:00,
2013-12-30 10:55:00,20.8,19.4,29.25,SW,225,3.8,4.5,94,0.00,,,0.00,meteobridge,2013-12-30 15:55:00,
2013-12-30 11:00:00,21.0,19.8,29.25,NE,45,3.8,4.5,95,0.00,,,0.00,meteobridge,2013-12-30 16:00:00,
2013-12-30 11:06:00,20.8,19.4,29.25,East,90,1.6,4.5,94,0.00,,,0.00,meteobridge,2013-12-30 16:06:00,
2013-12-30 11:11:00,20.7,19.2,29.24,NE,45,2.2,3.1,94,0.00,,,0.00,meteobridge,2013-12-30 16:11:00,
2013-12-30 11:16:00,20.7,19.2,29.24,NE,45,2.2,3.1,94,0.00,,,0.00,meteobridge,2013-12-30 16:16:00,
2013-12-30 11:21:00,20.7,19.2,29.24,NE,45,3.8,6.9,94,0.00,,,0.00,meteobridge,2013-12-30 16:21:00,
2013-12-30 11:26:00,19.8,18.3,29.24,NE,45,3.1,3.1,94,0.00,,,0.00,meteobridge,2013-12-30 16:26:00,
2013-12-30 11:31:00,19.6,18.3,29.24,NE,45,3.1,3.1,95,0.00,,,0.00,meteobridge,2013-12-30 16:31:00,
2013-12-30 11:37:00,19.2,18.3,29.24,SW,225,3.1,3.1,96,0.00,,,0.00,meteobridge,2013-12-30 16:37:00,
2013-12-30 11:42:00,19.0,18.1,29.24,West,270,3.8,4.5,96,0.00,,,0.00,meteobridge,2013-12-30 16:42:00,
2013-12-30 11:47:00,19.0,18.1,29.24,NE,45,2.2,5.4,96,0.00,,,0.00,meteobridge,2013-12-30 16:47:00,
2013-12-30 11:52:00,19.2,18.5,29.24,NW,315,2.2,2.2,97,0.00,,,0.00,meteobridge,2013-12-30 16:52:00,
2013-12-30 11:57:00,19.9,19.2,29.24,East,90,3.1,5.4,97,0.00,,,0.00,meteobridge,2013-12-30 16:57:00,
2013-12-30 12:02:00,20.3,19.6,29.23,SW,225,4.5,4.5,97,0.00,,,0.00,meteobridge,2013-12-30 17:02:00,
2013-12-30 12:08:00,20.3,19.0,29.23,NW,315,2.2,3.1,95,0.00,,,0.00,meteobridge,2013-12-30 17:08:00,
2013-12-30 12:13:00,21.0,20.1,29.23,North,0,0.7,3.8,96,0.00,,,0.00,meteobridge,2013-12-30 17:13:00,
2013-12-30 12:18:00,21.6,20.3,29.22,East,90,8.3,8.3,95,0.00,,,0.00,meteobridge,2013-12-30 17:18:00,
2013-12-30 12:23:00,21.6,20.1,29.22,NE,45,1.6,3.1,94,0.00,,,0.00,meteobridge,2013-12-30 17:23:00,
2013-12-30 12:28:00,21.0,19.0,29.21,NE,45,4.5,5.4,92,0.00,,,0.00,meteobridge,2013-12-30 17:28:00,
2013-12-30 12:33:00,21.0,19.4,29.21,North,0,3.8,3.8,93,0.00,,,0.00,meteobridge,2013-12-30 17:33:00,
2013-12-30 12:39:00,20.7,19.0,29.21,NW,315,3.8,3.8,93,0.00,,,0.00,meteobridge,2013-12-30 17:39:00,
2013-12-30 12:44:00,19.9,18.5,29.21,NNW,338,6.0,6.0,94,0.00,,,0.00,meteobridge,2013-12-30 17:44:00,
2013-12-30 12:49:00,19.9,18.7,29.21,WSW,248,3.8,6.9,95,0.00,,,0.00,meteobridge,2013-12-30 17:49:00,
2013-12-30 12:54:00,19.9,18.5,29.21,NW,315,2.2,4.5,94,0.00,,,0.00,meteobridge,2013-12-30 17:54:00,
2013-12-30 12:59:00,20.1,18.5,29.20,SSE,158,5.4,5.4,93,0.00,,,0.00,meteobridge,2013-12-30 17:59:00,
2013-12-30 13:04:00,20.3,18.7,29.20,West,270,4.5,6.0,93,0.00,,,0.00,meteobridge,2013-12-30 18:04:00,
2013-12-30 13:10:00,20.7,19.0,29.19,WSW,248,2.2,3.1,93,0.00,,,0.00,meteobridge,2013-12-30 18:10:00,
2013-12-30 13:15:00,21.2,19.6,29.19,West,270,8.3,8.3,93,0.00,,,0.00,meteobridge,2013-12-30 18:15:00,
2013-12-30 13:20:00,21.6,19.9,29.19,NE,45,3.8,4.5,93,0.00,,,0.00,meteobridge,2013-12-30 18:20:00,
2013-12-30 13:25:00,22.1,20.7,29.19,North,0,4.5,4.5,94,0.00,,,0.00,meteobridge,2013-12-30 18:25:00,
2013-12-30 13:30:00,22.3,20.3,29.18,NE,45,4.5,5.4,92,0.00,,,0.00,meteobridge,2013-12-30 18:30:00,
2013-12-30 13:35:00,22.6,19.9,29.17,NE,45,6.0,6.0,89,0.00,,,0.00,meteobridge,2013-12-30 18:35:00,
2013-12-30 13:41:00,23.9,20.7,29.18,NE,45,5.4,5.4,87,0.00,,,0.00,meteobridge,2013-12-30 18:41:00,
2013-12-30 13:46:00,25.7,21.6,29.18,East,90,3.1,5.4,84,0.00,,,0.00,meteobridge,2013-12-30 18:46:00,
2013-12-30 13:51:00,27.1,22.5,29.18,NE,45,0.0,3.8,82,0.00,,,0.00,meteobridge,2013-12-30 18:51:00,
2013-12-30 13:56:00,28.9,23.5,29.17,West,270,4.5,4.5,80,0.00,,,0.00,meteobridge,2013-12-30 18:56:00,
2013-12-30 14:01:00,27.7,21.4,29.17,East,90,4.5,4.5,77,0.00,,,0.00,meteobridge,2013-12-30 19:01:00,
2013-12-30 14:07:00,28.9,22.3,29.16,NE,45,3.8,3.8,76,0.00,,,0.00,meteobridge,2013-12-30 19:07:00,
2013-12-30 14:12:00,28.9,22.3,29.17,West,270,5.4,5.4,76,0.00,,,0.00,meteobridge,2013-12-30 19:12:00,
2013-12-30 14:17:00,27.9,21.2,29.17,NW,315,6.9,6.9,76,0.00,,,0.00,meteobridge,2013-12-30 19:17:00,
2013-12-30 14:22:00,26.8,20.5,29.17,SW,225,4.5,6.9,77,0.00,,,0.00,meteobridge,2013-12-30 19:22:00,
2013-12-30 14:27:00,28.0,22.5,29.17,SW,225,3.1,3.1,79,0.00,,,0.00,meteobridge,2013-12-30 19:27:00,
2013-12-30 14:32:00,28.8,22.1,29.17,East,90,2.2,3.1,76,0.00,,,0.00,meteobridge,2013-12-30 19:32:00,
2013-12-30 14:38:00,28.4,21.2,29.16,East,90,2.2,3.8,74,0.00,,,0.00,meteobridge,2013-12-30 19:38:00,
2013-12-30 14:43:00,28.4,21.2,29.16,West,270,2.2,5.4,74,0.00,,,0.00,meteobridge,2013-12-30 19:43:00,
2013-12-30 14:48:00,27.9,20.7,29.16,SE,135,2.2,3.8,74,0.00,,,0.00,meteobridge,2013-12-30 19:48:00,
2013-12-30 14:53:00,28.6,21.9,29.16,NE,45,2.2,3.1,76,0.00,,,0.00,meteobridge,2013-12-30 19:53:00,
2013-12-30 14:58:00,28.2,21.0,29.16,West,270,4.5,6.9,74,0.00,,,0.00,meteobridge,2013-12-30 19:58:00,
2013-12-30 15:03:00,28.0,21.4,29.16,NW,315,4.5,4.5,76,0.00,,,0.00,meteobridge,2013-12-30 20:03:00,
2013-12-30 15:09:00,27.5,20.7,29.16,West,270,2.2,3.8,75,0.00,,,0.00,meteobridge,2013-12-30 20:09:00,
2013-12-30 15:14:00,26.4,19.6,29.15,NW,315,2.2,4.5,75,0.00,,,0.00,meteobridge,2013-12-30 20:14:00,
2013-12-30 15:19:00,25.7,19.8,29.15,NW,315,3.1,5.4,78,0.00,,,0.00,meteobridge,2013-12-30 20:19:00,
2013-12-30 15:24:00,25.7,19.8,29.16,North,0,1.6,4.5,78,0.00,,,0.00,meteobridge,2013-12-30 20:24:00,
2013-12-30 15:29:00,25.3,19.8,29.16,West,270,3.1,5.4,79,0.00,,,0.00,meteobridge,2013-12-30 20:29:00,
2013-12-30 15:34:00,25.0,19.8,29.15,West,270,2.2,2.2,80,0.00,,,0.00,meteobridge,2013-12-30 20:34:00,
2013-12-30 15:40:00,24.8,19.6,29.16,NE,45,3.1,3.8,80,0.00,,,0.00,meteobridge,2013-12-30 20:40:00,
2013-12-30 15:45:00,24.8,20.1,29.16,West,270,4.5,4.5,82,0.00,,,0.00,meteobridge,2013-12-30 20:45:00,
2013-12-30 15:50:00,24.4,19.4,29.16,West,270,3.1,3.8,81,0.00,,,0.00,meteobridge,2013-12-30 20:50:00,
2013-12-30 15:55:00,24.3,19.2,29.16,NW,315,3.8,4.5,81,0.00,,,0.00,meteobridge,2013-12-30 20:55:00,
2013-12-30 16:00:00,23.9,19.2,29.16,West,270,4.5,4.5,82,0.00,,,0.00,meteobridge,2013-12-30 21:00:00,
2013-12-30 16:05:00,23.7,19.0,29.16,NE,45,2.2,3.8,82,0.00,,,0.00,meteobridge,2013-12-30 21:05:00,
2013-12-30 16:11:00,23.7,19.4,29.16,NW,315,3.1,3.8,83,0.00,,,0.00,meteobridge,2013-12-30 21:11:00,
2013-12-30 16:16:00,23.9,19.8,29.16,West,270,3.1,3.8,84,0.00,,,0.00,meteobridge,2013-12-30 21:16:00,
2013-12-30 16:21:00,23.7,19.6,29.16,NW,315,4.5,4.5,84,0.00,,,0.00,meteobridge,2013-12-30 21:21:00,
2013-12-30 16:26:00,23.5,19.4,29.17,NW,315,2.2,3.1,84,0.00,,,0.00,meteobridge,2013-12-30 21:26:00,
2013-12-30 16:31:00,23.5,19.4,29.17,West,270,4.5,4.5,84,0.00,,,0.00,meteobridge,2013-12-30 21:31:00,
2013-12-30 16:36:00,23.4,19.8,29.17,NW,315,3.1,3.8,86,0.00,,,0.00,meteobridge,2013-12-30 21:36:00,
2013-12-30 16:42:00,23.0,19.8,29.17,NW,315,3.1,3.1,87,0.00,,,0.00,meteobridge,2013-12-30 21:42:00,
2013-12-30 16:47:00,22.8,19.6,29.18,NW,315,2.2,3.1,87,0.00,,,0.00,meteobridge,2013-12-30 21:47:00,
2013-12-30 16:52:00,22.6,19.4,29.18,West,270,3.1,5.4,87,0.00,,,0.00,meteobridge,2013-12-30 21:52:00,
2013-12-30 16:57:00,22.3,19.0,29.17,NW,315,3.8,4.5,87,0.00,,,0.00,meteobridge,2013-12-30 21:57:00,
2013-12-30 17:02:00,21.9,18.3,29.16,NW,315,3.1,4.5,86,0.00,,,0.00,meteobridge,2013-12-30 22:02:00,
2013-12-30 17:07:00,21.6,18.0,29.17,NNW,338,3.1,3.1,86,0.00,,,0.00,meteobridge,2013-12-30 22:07:00,
2013-12-30 17:13:00,21.4,18.1,29.17,West,270,3.1,3.8,87,0.00,,,0.00,meteobridge,2013-12-30 22:13:00,
2013-12-30 17:18:00,21.0,17.8,29.17,NW,315,2.2,2.2,87,0.00,,,0.00,meteobridge,2013-12-30 22:18:00,
2013-12-30 17:23:00,21.0,17.8,29.17,West,270,2.2,3.1,87,0.00,,,0.00,meteobridge,2013-12-30 22:23:00,
2013-12-30 17:28:00,20.8,17.6,29.17,NW,315,1.6,3.1,87,0.00,,,0.00,meteobridge,2013-12-30 22:28:00,
2013-12-30 17:33:00,20.7,17.4,29.17,NW,315,1.6,1.6,87,0.00,,,0.00,meteobridge,2013-12-30 22:33:00,
2013-12-30 17:38:00,20.5,17.4,29.17,NW,315,1.6,1.6,88,0.00,,,0.00,meteobridge,2013-12-30 22:38:00,
2013-12-30 17:44:00,20.3,17.6,29.17,West,270,2.2,2.2,89,0.00,,,0.00,meteobridge,2013-12-30 22:44:00,
2013-12-30 17:49:00,20.1,17.4,29.18,North,0,0.7,0.7,89,0.00,,,0.00,meteobridge,2013-12-30 22:49:00,
2013-12-30 17:54:00,19.9,17.8,29.18,NW,315,2.2,2.2,91,0.00,,,0.00,meteobridge,2013-12-30 22:54:00,
2013-12-30 17:59:00,19.8,17.8,29.18,NW,315,1.6,2.2,92,0.00,,,0.00,meteobridge,2013-12-30 22:59:00,
2013-12-30 18:04:00,19.6,18.0,29.18,NE,45,2.2,2.2,93,0.00,,,0.00,meteobridge,2013-12-30 23:04:00,
2013-12-30 18:09:00,19.6,18.1,29.17,NW,315,2.2,2.2,94,0.00,,,0.00,meteobridge,2013-12-30 23:09:00,
2013-12-30 18:15:00,19.4,18.0,29.17,NW,315,1.6,1.6,94,0.00,,,0.00,meteobridge,2013-12-30 23:15:00,
2013-12-30 18:20:00,19.4,18.0,29.17,NW,315,0.0,1.6,94,0.00,,,0.00,meteobridge,2013-12-30 23:20:00,
2013-12-30 18:25:00,19.2,18.0,29.17,NW,315,1.6,1.6,95,0.00,,,0.00,meteobridge,2013-12-30 23:25:00,
2013-12-30 18:30:00,19.2,18.0,29.17,NW,315,0.0,0.7,95,0.00,,,0.00,meteobridge,2013-12-30 23:30:00,
2013-12-30 18:35:00,19.0,18.1,29.18,NW,315,0.7,1.6,96,0.00,,,0.00,meteobridge,2013-12-30 23:35:00,
2013-12-30 18:40:00,19.0,18.5,29.18,NW,315,0.7,0.7,98,0.00,,,0.00,meteobridge,2013-12-30 23:40:00,
2013-12-30 18:46:00,19.0,18.5,29.18,West,270,1.6,1.6,98,0.00,,,0.00,meteobridge,2013-12-30 23:46:00,
2013-12-30 18:51:00,19.0,18.5,29.18,West,270,0.0,1.6,98,0.00,,,0.00,meteobridge,2013-12-30 23:51:00,
2013-12-30 18:56:00,19.0,18.5,29.18,NW,315,1.6,1.6,98,0.00,,,0.00,meteobridge,2013-12-30 23:56:00,
2013-12-30 19:01:00,18.9,18.7,29.18,NW,315,1.6,1.6,99,0.00,,,0.00,meteobridge,2013-12-31 00:01:00,
2013-12-30 19:06:00,18.7,18.5,29.19,West,270,1.6,1.6,99,0.00,,,0.00,meteobridge,2013-12-31 00:06:00,
2013-12-30 19:11:00,18.7,18.5,29.19,West,270,1.6,1.6,99,0.00,,,0.00,meteobridge,2013-12-31 00:11:00,
2013-12-30 19:17:00,18.7,18.5,29.19,West,270,1.6,2.2,99,0.00,,,0.00,meteobridge,2013-12-31 00:17:00,
2013-12-30 19:22:00,18.7,18.5,29.19,NW,315,1.6,1.6,99,0.00,,,0.00,meteobridge,2013-12-31 00:22:00,
2013-12-30 19:27:00,18.7,18.5,29.19,North,0,1.6,2.2,99,0.00,,,0.00,meteobridge,2013-12-31 00:27:00,
2013-12-30 19:32:00,18.5,18.3,29.19,West,270,1.6,2.2,99,0.00,,,0.00,meteobridge,2013-12-31 00:32:00,
2013-12-30 19:37:00,18.5,18.3,29.18,SW,225,2.2,2.2,99,0.00,,,0.00,meteobridge,2013-12-31 00:37:00,
2013-12-30 19:42:00,18.7,18.5,29.19,North,0,0.7,2.2,99,0.00,,,0.00,meteobridge,2013-12-31 00:42:00,
2013-12-30 19:48:00,18.3,18.1,29.19,NW,315,2.2,2.2,99,0.00,,,0.00,meteobridge,2013-12-31 00:48:00,
2013-12-30 19:53:00,18.1,18.0,29.19,West,270,3.1,3.1,99,0.00,,,0.00,meteobridge,2013-12-31 00:53:00,
2013-12-30 19:58:00,18.1,18.0,29.19,West,270,3.1,3.1,99,0.00,,,0.00,meteobridge,2013-12-31 00:58:00,
2013-12-30 20:03:00,18.1,18.0,29.20,West,270,3.1,3.1,99,0.00,,,0.00,meteobridge,2013-12-31 01:03:00,
2013-12-30 20:08:00,18.3,18.1,29.19,NW,315,1.6,2.2,99,0.00,,,0.00,meteobridge,2013-12-31 01:08:00,
2013-12-30 20:14:00,18.3,18.1,29.19,NW,315,2.2,2.2,99,0.00,,,0.00,meteobridge,2013-12-31 01:14:00,
2013-12-30 20:19:00,18.3,18.1,29.19,NW,315,1.6,1.6,99,0.00,,,0.00,meteobridge,2013-12-31 01:19:00,
2013-12-30 20:24:00,18.1,18.0,29.19,North,0,0.7,0.7,99,0.00,,,0.00,meteobridge,2013-12-31 01:24:00,
2013-12-30 20:29:00,18.1,18.0,29.19,NW,315,0.0,0.7,99,0.00,,,0.00,meteobridge,2013-12-31 01:29:00,
2013-12-30 20:34:00,18.1,18.0,29.19,NW,315,0.7,1.6,99,0.00,,,0.00,meteobridge,2013-12-31 01:34:00,
2013-12-30 20:39:00,18.1,18.0,29.19,NW,315,0.0,0.7,99,0.00,,,0.00,meteobridge,2013-12-31 01:39:00,
2013-12-30 20:45:00,18.1,18.0,29.19,NW,315,1.6,1.6,99,0.00,,,0.00,meteobridge,2013-12-31 01:45:00,
2013-12-30 20:50:00,18.1,18.0,29.18,West,270,1.6,1.6,99,0.00,,,0.00,meteobridge,2013-12-31 01:50:00,
2013-12-30 20:55:00,18.1,18.0,29.18,South,180,0.7,2.2,99,0.00,,,0.00,meteobridge,2013-12-31 01:55:00,
2013-12-30 21:00:00,18.3,18.1,29.18,East,90,1.6,1.6,99,0.00,,,0.00,meteobridge,2013-12-31 02:00:00,
2013-12-30 21:05:00,18.3,18.1,29.18,NE,45,2.2,2.2,99,0.00,,,0.00,meteobridge,2013-12-31 02:05:00,
2013-12-30 21:10:00,18.3,18.1,29.18,North,0,0.7,1.6,99,0.00,,,0.00,meteobridge,2013-12-31 02:10:00,
2013-12-30 21:16:00,18.3,18.1,29.18,East,90,0.7,1.6,99,0.00,,,0.00,meteobridge,2013-12-31 02:16:00,
2013-12-30 21:21:00,18.5,18.3,29.18,East,90,0.7,1.6,99,0.00,,,0.00,meteobridge,2013-12-31 02:21:00,
2013-12-30 21:26:00,18.5,18.3,29.17,SE,135,2.2,2.2,99,0.00,,,0.00,meteobridge,2013-12-31 02:26:00,
2013-12-30 21:31:00,18.5,18.3,29.18,North,0,0.7,1.6,99,0.00,,,0.00,meteobridge,2013-12-31 02:31:00,
2013-12-30 21:36:00,18.5,18.3,29.17,East,90,1.6,1.6,99,0.00,,,0.00,meteobridge,2013-12-31 02:36:00,
2013-12-30 21:41:00,18.5,18.3,29.17,North,0,0.7,1.6,99,0.00,,,0.00,meteobridge,2013-12-31 02:41:00,
2013-12-30 21:47:00,18.5,18.3,29.17,SE,135,1.6,2.2,99,0.00,,,0.00,meteobridge,2013-12-31 02:47:00,
2013-12-30 21:52:00,18.5,18.3,29.16,NE,45,2.2,2.2,99,0.00,,,0.00,meteobridge,2013-12-31 02:52:00,
2013-12-30 21:57:00,18.5,18.3,29.17,North,0,0.7,2.2,99,0.00,,,0.00,meteobridge,2013-12-31 02:57:00,
2013-12-30 22:02:00,18.7,18.5,29.16,North,0,1.6,1.6,99,0.00,,,0.00,meteobridge,2013-12-31 03:02:00,
2013-12-30 22:07:00,18.9,18.7,29.17,WNW,293,2.2,2.2,99,0.00,,,0.00,meteobridge,2013-12-31 03:07:00,
2013-12-30 22:12:00,18.9,18.7,29.17,North,0,0.7,2.2,99,0.00,,,0.00,meteobridge,2013-12-31 03:12:00,
2013-12-30 22:18:00,19.0,18.9,29.17,NW,315,3.1,3.1,99,0.00,,,0.00,meteobridge,2013-12-31 03:18:00,
2013-12-30 22:23:00,19.2,19.0,29.17,West,270,2.2,4.5,99,0.00,,,0.00,meteobridge,2013-12-31 03:23:00,
2013-12-30 22:28:00,19.4,19.2,29.16,NNW,338,3.1,3.1,99,0.00,,,0.00,meteobridge,2013-12-31 03:28:00,
2013-12-30 22:33:00,19.4,19.2,29.16,West,270,3.1,3.1,99,0.00,,,0.00,meteobridge,2013-12-31 03:33:00,
2013-12-30 22:38:00,19.4,19.2,29.16,West,270,3.1,3.1,99,0.00,,,0.00,meteobridge,2013-12-31 03:38:00,
2013-12-30 22:43:00,19.4,19.2,29.17,NW,315,5.4,5.4,99,0.00,,,0.00,meteobridge,2013-12-31 03:43:00,
2013-12-30 22:49:00,19.6,19.4,29.17,SW,225,3.1,3.1,99,0.00,,,0.00,meteobridge,2013-12-31 03:49:00,
2013-12-30 22:54:00,19.6,19.4,29.16,NW,315,3.8,3.8,99,0.00,,,0.00,meteobridge,2013-12-31 03:54:00,
2013-12-30 22:59:00,19.6,19.4,29.16,West,270,3.1,3.8,99,0.00,,,0.00,meteobridge,2013-12-31 03:59:00,
2013-12-30 23:04:00,19.6,19.4,29.17,West,270,2.2,3.1,99,0.00,,,0.00,meteobridge,2013-12-31 04:04:00,
2013-12-30 23:09:00,19.8,19.6,29.16,West,270,3.8,5.4,99,0.00,,,0.00,meteobridge,2013-12-31 04:09:00,
2013-12-30 23:14:00,19.8,19.6,29.16,SW,225,3.8,4.5,99,0.00,,,0.00,meteobridge,2013-12-31 04:14:00,
2013-12-30 23:20:00,19.8,19.6,29.16,SW,225,5.4,5.4,99,0.00,,,0.00,meteobridge,2013-12-31 04:20:00,
2013-12-30 23:25:00,19.8,19.6,29.16,West,270,3.1,3.8,99,0.00,,,0.00,meteobridge,2013-12-31 04:25:00,
2013-12-30 23:30:00,19.8,19.6,29.17,NW,315,3.8,3.8,99,0.00,,,0.00,meteobridge,2013-12-31 04:30:00,
2013-12-30 23:35:00,19.8,19.6,29.16,West,270,2.2,2.2,99,0.00,,,0.00,meteobridge,2013-12-31 04:35:00,
2013-12-30 23:40:00,19.8,19.6,29.17,NW,315,8.3,8.3,99,0.00,,,0.00,meteobridge,2013-12-31 04:40:00,
2013-12-30 23:44:00,19.6,19.4,29.17,NW,315,4.5,4.5,99,0.00,,,0.00,meteobridge,2013-12-31 04:44:00,
2013-12-30 23:49:00,19.8,19.6,29.16,West,270,2.2,2.2,99,0.00,,,0.00,meteobridge,2013-12-31 04:49:00,
2013-12-30 23:54:00,19.8,19.6,29.16,West,270,3.1,3.1,99,0.00,,,0.00,meteobridge,2013-12-31 04:54:00,